Location: ??????????
(42.1626°N, 44.1160°E)
Time: 23:14:54
(UTC+00:00)

SL-4 R/B - Visible Passes

Search period start: 24 June 2021 00:00
Search period end: 04 July 2021 00:00
Orbit: 427 x 663 km, 51.6° (Epoch: 24 June)

Date Brightness Start Highest point End Pass type
(mag) Time Alt. Az. Time Alt. Az. Time Alt. Az.
24 Jun 2.7 18:13:42 10° WSW 18:17:58 59° NNW 18:21:55 10° NE visible
24 Jun 4.5 19:54:52 10° WNW 19:58:07 22° NNW 20:01:11 10° NE visible
24 Jun 4.4 21:35:37 10° NW 21:38:39 22° N 21:41:32 10° ENE visible
24 Jun 2.1 23:15:08 10° NW 23:18:47 61° NNE 23:22:13 10° ESE visible
25 Jun 3.1 18:06:49 10° WSW 18:11:01 48° NNW 18:14:54 10° NE visible
25 Jun 4.5 19:48:06 10° WNW 19:51:17 21° N 19:54:17 10° NE visible
25 Jun 4.2 21:28:39 10° NW 21:31:49 24° NNE 21:34:49 10° ENE visible
25 Jun 1.6 23:08:08 10° NW 23:11:49 81° NNE 23:15:18 10° ESE visible
26 Jun 3.4 00:49:12 10° W 00:50:49 13° SW 00:52:24 10° SSW visible
26 Jun 3.5 18:00:00 10° W 18:04:05 40° NNW 18:07:54 10° NE visible
26 Jun 4.6 19:41:20 10° NW 19:44:27 21° N 19:47:24 10° NE visible
26 Jun 3.9 21:21:38 10° NW 21:24:57 27° NNE 21:28:05 10° ENE visible
26 Jun 1.4 23:01:09 10° WNW 23:04:51 75° SW 23:06:29 29° SE visible
27 Jun 3.9 17:53:11 10° W 17:57:11 34° NNW 18:00:54 10° NE visible
27 Jun 4.6 19:34:30 10° NW 19:37:37 20° N 19:40:33 10° NE visible
27 Jun 3.6 21:14:36 10° NW 21:18:05 30° NNE 21:20:44 14° ENE visible
27 Jun 3.0 22:54:12 10° WNW 22:56:08 27° WNW 22:56:08 27° WNW visible
28 Jun 4.1 17:46:25 10° W 17:50:17 30° NNW 17:53:54 10° NE visible
28 Jun 4.5 19:27:39 10° NW 19:30:47 21° N 19:33:45 10° NE visible
28 Jun 3.2 21:07:35 10° NW 21:11:12 36° NNE 21:12:21 28° ENE visible
28 Jun 4.1 22:47:18 10° WNW 22:47:49 13° WNW 22:47:49 13° WNW visible
29 Jun 4.3 17:39:39 10° WNW 17:43:24 27° NNW 17:46:55 10° NE visible
29 Jun 4.4 19:20:46 10° NW 19:23:58 21° N 19:26:59 10° ENE visible
29 Jun 2.8 21:00:33 10° NW 21:04:18 44° NNE 21:04:32 43° NE visible
30 Jun 4.4 17:32:54 10° WNW 17:36:32 25° NNW 17:39:58 10° NE visible
30 Jun 4.3 19:13:50 10° NW 19:17:07 23° N 19:20:14 10° ENE visible
30 Jun 2.5 20:53:30 10° NW 20:56:57 51° N 20:56:57 51° N visible
01 Jul 4.4 17:26:08 10° WNW 17:29:42 24° N 17:33:02 10° NE visible
01 Jul 4.1 19:06:51 10° NW 19:10:17 24° N 19:13:30 10° ENE visible
01 Jul 2.6 20:46:29 10° NW 20:49:32 49° NW 20:49:32 49° NW visible
02 Jul 4.4 17:19:21 10° WNW 17:22:51 23° N 17:26:09 10° NE visible
02 Jul 3.9 18:59:52 10° NW 19:03:26 27° NNE 19:06:42 10° ENE visible
02 Jul 2.8 20:39:29 10° NW 20:42:13 42° WNW 20:42:13 42° WNW visible
03 Jul 4.4 17:12:33 10° NW 17:16:00 22° N 17:19:16 10° NE visible
03 Jul 3.6 18:52:51 10° NW 18:56:34 30° NNE 18:59:27 13° ENE visible
03 Jul 3.1 20:32:29 10° WNW 20:34:58 35° WNW 20:34:58 35° WNW visible
